Regional Weather Roundup
Issued by NWS Sioux Falls, SD

Home | Current Version | Previous Version | Text Only | Print | Product List | Glossary On
Versions: 1 2 3 4 5 6 7 8 9 10 11 12 13 14 15 16 17 18 19 20 21 22 23 24 25 26 27 28 29 30 31 32 33 34 35 36 37 38 39 40 41 42 43 44 45 46 47 48 49 50
000
ASUS43 KFSD 231602
RWRFSD

WEATHER ROUNDUP FOR SE SOUTH DAKOTA/SW MINNESOTA/NW IOWA
NATIONAL WEATHER SERVICE SIOUX FALLS SD
1100 AM CDT WED JUL 23 2014

NOTE: "FAIR" INDICATES FEW OR NO CLOUDS BELOW 12,000 FEET WITH NO
SIGNIFICANT WEATHER AND OR OBSTRUCTIONS TO VISIBILITY.


SDZ038>040-050-052>070-231700-
SOUTHEAST SOUTH DAKOTA

CITY           SKY/WX    TMP DP  RH WIND       PRES   REMARKS
CHAMBERLAIN    CLOUDY    73  56  56 SE15      30.29S
HURON          SUNNY     74  57  55 E9        30.28F
MADISON        FAIR      72  55  56 SE5       30.31S
MITCHELL       MOSUNNY   76  58  53 SE10      30.30S
SIOUX FALLS    MOSUNNY   74  55  51 SE7       30.29S
WINNER         FAIR      75  56  51 SE21      30.27F
YANKTON        PTSUNNY   72  57  60 SE6       30.29S
$$

MNZ071-072-080-081-089-090-097-098-231700-
SOUTHWEST MINNESOTA

CITY           SKY/WX    TMP DP  RH WIND       PRES   REMARKS
FAIRMONT       SUNNY     73  57  56 E5        30.26S
JACKSON        SUNNY     73  59  60 E8        30.28R
LUVERNE        SUNNY     75  54  46 E7        30.29S
MARSHALL       SUNNY     73  55  53 NE7       30.28R
MONTEVIDEO     SUNNY     79  57  47 E6        30.29R
PIPESTONE      SUNNY     73  52  46 E8        30.30R
REDWOOD FALLS  SUNNY     77  53  43 E7        30.27S
TRACY          SUNNY     74  56  53 NE6       30.28S
WINDOM         SUNNY     73  57  56 NE9       30.28R
WORTHINGTON    SUNNY     72  59  64 NE8       30.29F
$$

IAZ001>003-012>014-020>022-031-032-NEZ013-014-SDZ071-231700-
NORTHWEST IOWA

CITY           SKY/WX    TMP DP  RH WIND       PRES   REMARKS
CHEROKEE       SUNNY     74  60  62 NE3       30.26S
DENISON        SUNNY     73  61  64 N6        30.24R
ESTHERVILLE    SUNNY     72  61  68 E3        30.26S
LE MARS        SUNNY     75  59  57 N5        30.28S
ORANGE CITY    SUNNY     75  54  46 NE6       30.27F
SHELDON        SUNNY     73  59  60 NE6       30.28R
SIOUX CITY     SUNNY     77  59  53 E6        30.26F
SPENCER        SUNNY     75  59  57 VRB3      30.27S
STORM LAKE     MOSUNNY   73  63  68 VRB6      30.27S
$$

ABBREVIATIONS USED IN REMARKS
   TC - TEMPERATURE IN CELSIUS
  WCI - WIND CHILL INDEX
   HX - HEAT INDEX
  VSB - VISIBILITY



USA.gov is the U.S. government's official web portal to all federal, state and local government web resources and services.